FW8323 Weather Reports


Display with metric or nautical units.
time (UTC)temp
F
wind
direction
speed
MPH
gust
MPH
rain 1hr
in
rain 24hr
in
rain mn
in
humidity
%
barometer
mb
20240623123235 77 331 0.0 0.0 0.00 0.00 0.00 84 1011.2
20240623122734 77 350 0.0 0.0 0.00 0.00 0.00 84 1011.1
20240623122233 77 348 0.0 0.0 0.00 0.00 0.00 85 1011.2
20240623121731 77 347 0.0 0.0 0.00 0.00 0.00 86 1011.2
20240623121228 77 334 0.0 0.0 0.00 0.00 0.00 86 1011.2
20240623120727 77 324 0.0 0.0 0.00 0.00 0.00 86 1011.0
20240623120226 78 331 0.0 0.0 0.00 0.00 0.00 86 1011.1
20240623115724 78 3 0.0 0.0 0.00 0.00 0.00 86 1010.9
20240623115224 78 318 0.0 0.0 0.00 0.00 0.00 87 1010.9
20240623114722 78 342 0.0 0.0 0.00 0.00 0.00 87 1010.9
20240623114218 78 318 0.0 0.0 0.00 0.00 0.00 86 1011.0
20240623113718 78 297 0.0 0.0 0.00 0.00 0.00 86 1011.0
20240623113216 78 310 0.0 0.0 0.00 0.00 0.00 86 1010.8
20240623112714 78 306 0.0 0.0 0.00 0.00 0.00 87 1010.9
20240623112213 78 281 0.0 0.0 0.00 0.00 0.00 86 1011.0
20240623111711 78 335 0.0 0.0 0.00 0.00 0.00 86 1010.7
20240623111210 78 305 0.0 0.0 0.00 0.00 0.00 86 1010.9
20240623110709 78 268 0.0 0.0 0.00 0.00 0.00 86 1010.6
20240623110205 78 281 0.0 0.0 0.00 0.00 0.00 86 1010.7
20240623105702 78 315 0.0 0.0 0.00 0.00 0.00 85 1010.6
20240623105201 78 284 0.0 0.0 0.00 0.00 0.00 85 1010.6
20240623104701 78 293 0.0 0.0 0.00 0.00 0.00 85 1010.7
20240623104159 78 275 0.0 0.0 0.00 0.00 0.00 85 1010.6
20240623103657 78 308 0.0 0.0 0.00 0.00 0.00 84 1010.3
20240623103155 78 249 0.0 0.0 0.00 0.00 0.00 84 1010.4
20240623102654 78 247 0.0 0.0 0.00 0.00 0.00 84 1010.6
20240623102153 78 281 0.0 0.0 0.00 0.00 0.00 84 1010.2
20240623101653 78 277 0.0 0.0 0.00 0.00 0.00 84 1010.1
20240623101150 77 260 0.0 0.0 0.00 0.00 0.00 84 1010.1
20240623100650 77 268 0.0 0.0 0.00 0.00 0.00 84 1010.2
20240623100149 78 214 0.0 0.0 0.00 0.00 0.00 83 1009.9
20240623095648 78 266 0.0 0.0 0.00 0.00 0.00 83 1010.1
20240623095148 78 283 0.0 0.0 0.00 0.00 0.00 83 1009.9
20240623094648 78 240 0.0 0.0 0.00 0.00 0.00 82 1010.0
20240623094147 78 241 0.0 0.0 0.00 0.00 0.00 82 1009.8
20240623093645 78 253 0.0 0.0 0.00 0.00 0.00 82 1009.8
20240623093144 78 266 0.0 0.0 0.00 0.00 0.00 82 1009.8
20240623092643 78 255 0.0 0.0 0.00 0.00 0.00 83 1009.8
20240623092143 78 243 0.0 0.0 0.00 0.00 0.00 83 1009.6
20240623091641 77 246 0.0 0.0 0.00 0.00 0.00 83 1009.7
20240623091140 77 200 0.0 0.0 0.00 0.00 0.00 83 1009.7
20240623090638 77 229 0.0 0.0 0.00 0.00 0.00 83 1009.7
20240623090138 78 236 0.0 0.0 0.00 0.00 0.00 82 1009.7
20240623085636 78 238 0.0 0.0 0.00 0.00 0.00 82 1009.9
20240623085134 78 233 0.0 0.0 0.00 0.00 0.00 82 1009.7
20240623084633 78 252 0.0 0.0 0.00 0.00 0.00 82 1009.8
20240623084130 78 255 0.0 0.0 0.00 0.00 0.00 82 1009.9
20240623083630 78 261 0.0 0.0 0.00 0.00 0.00 82 1009.9
20240623083130 78 260 0.0 0.0 0.00 0.00 0.00 81 1009.8
20240623082625 78 267 0.0 0.0 0.00 0.00 0.00 81 1010.0
20240623082122 78 267 0.0 0.0 0.00 0.00 0.00 81 1009.8
20240623081621 78 264 0.0 0.0 0.00 0.00 0.00 81 1009.8
20240623080400 78 258 0.0 0.0 0.00 0.00 0.00 80 1009.5
20240623075859 78 238 0.0 0.0 0.00 0.00 0.00 80 1009.5
20240623075357 78 239 0.0 0.0 0.00 0.00 0.00 80 1009.5
20240623074856 78 248 0.0 0.0 0.00 0.00 0.00 80 1009.3
20240623074354 79 236 0.0 0.0 0.00 0.00 0.00 80 1009.6
20240623073853 78 214 0.0 0.0 0.00 0.00 0.00 80 1009.3
20240623073352 78 211 0.0 0.0 0.00 0.00 0.00 81 1009.5
20240623072850 78 258 0.0 0.0 0.00 0.00 0.00 81 1009.6
20240623072349 78 207 0.0 0.0 0.00 0.00 0.00 82 1009.4
20240623071847 78 208 0.0 0.0 0.00 0.00 0.00 82 1009.2
20240623071346 77 226 0.0 0.0 0.00 0.00 0.00 83 1009.5
20240623070844 77 218 0.0 0.0 0.00 0.00 0.00 83 1009.6
20240623070343 78 219 0.0 0.0 0.00 0.00 0.00 83 1009.7
20240623065840 77 240 0.0 0.0 0.00 0.00 0.00 83 1009.6
20240623065340 77 223 0.0 0.0 0.00 0.00 0.00 83 1009.8
20240623064838 77 204 0.0 0.0 0.00 0.00 0.00 83 1009.6
20240623064338 78 222 0.0 0.0 0.00 0.00 0.00 82 1009.6
20240623063837 78 216 0.0 0.0 0.00 0.00 0.00 82 1009.6
20240623063335 78 235 0.0 0.0 0.00 0.00 0.00 82 1009.6
20240623062833 78 227 0.0 0.0 0.00 0.00 0.00 81 1009.5
20240623062333 78 225 0.0 0.0 0.00 0.00 0.00 81 1009.7
20240623061831 78 210 0.0 0.0 0.00 0.00 0.00 81 1009.6
20240623061330 78 234 0.0 0.0 0.00 0.00 0.00 80 1009.7
20240623060826 79 231 0.0 0.0 0.00 0.00 0.00 80 1009.6
20240623060325 79 220 0.0 0.0 0.00 0.00 0.00 79 1009.6
20240623055824 79 238 0.0 0.0 0.00 0.00 0.00 80 1009.6
20240623055323 79 229 0.0 0.0 0.00 0.00 0.00 79 1009.5
20240623054822 79 219 0.0 0.0 0.00 0.00 0.00 79 1009.7
20240623054320 79 224 0.0 0.0 0.00 0.00 0.00 80 1009.4
20240623053818 79 219 0.0 0.0 0.00 0.00 0.00 79 1010.0
20240623053317 79 233 0.0 0.0 0.00 0.00 0.00 79 1009.6
20240623052815 79 226 0.0 0.0 0.00 0.00 0.00 79 1009.7
20240623052313 79 227 0.0 0.0 0.00 0.00 0.00 79 1009.6
20240623051812 79 207 0.0 0.0 0.00 0.00 0.00 78 1009.8
20240623051308 79 226 0.0 0.0 0.00 0.00 0.00 78 1009.6
20240623050807 80 238 0.0 0.0 0.00 0.00 0.00 78 1009.6
20240623050306 80 212 0.0 0.0 0.00 0.00 0.00 78 1009.8
20240623045805 80 239 0.0 0.0 0.00 0.00 0.00 78 1009.5
20240623045306 79 213 0.0 0.0 0.00 0.00 0.00 78 1009.5
20240623044802 80 203 0.0 0.0 0.00 0.00 0.00 78 1009.3
20240623044302 80 191 0.0 0.0 0.00 0.00 0.00 78 1009.4
20240623043800 80 200 0.0 0.0 0.00 0.00 0.00 77 1009.5
20240623043259 80 199 0.0 0.0 0.00 0.00 0.00 77 1009.5
20240623042757 80 223 0.0 0.0 0.00 0.00 0.00 77 1009.6
20240623042254 80 220 0.0 0.0 0.00 0.00 0.00 77 1009.5
20240623041752 80 221 0.0 0.0 0.00 0.00 0.00 76 1009.6
20240623041251 80 211 0.0 0.0 0.00 0.00 0.00 76 1009.7
20240623040750 80 186 0.0 0.0 0.00 0.00 0.00 76 1009.6
20240623040248 80 177 0.0 0.0 0.00 0.00 0.00 76 1009.5
20240623035747 80 211 0.0 0.0 0.00 0.00 0.00 77 1009.4
20240623035244 80 243 0.0 0.0 0.00 0.00 0.00 76 1009.3
20240623034743 80 188 0.0 0.0 0.00 0.00 0.00 76 1009.7
20240623034242 80 210 0.0 0.0 0.00 0.00 0.00 76 1009.7
20240623033742 81 229 0.0 0.0 0.00 0.00 0.00 76 1009.5
20240623033241 81 215 0.0 0.0 0.00 0.00 0.00 76 1009.5
20240623032740 81 214 0.0 0.0 0.00 0.00 0.00 76 1009.6
20240623032239 80 220 0.0 0.0 0.00 0.00 0.00 77 1009.5
20240623031739 80 211 0.0 0.0 0.00 0.00 0.00 77 1009.6
20240623031237 81 203 0.0 0.0 0.00 0.00 0.00 76 1009.6
20240623030736 81 204 0.0 0.0 0.00 0.00 0.00 76 1009.7
20240623030234 81 191 0.0 0.0 0.00 0.00 0.00 76 1009.7
20240623025732 81 213 0.0 0.0 0.00 0.00 0.00 76 1009.6
20240623025231 81 193 0.0 0.0 0.00 0.00 0.00 76 1009.5
20240623024729 81 181 0.0 0.0 0.00 0.00 0.00 76 1009.3
20240623024227 81 167 0.0 0.0 0.00 0.00 0.00 76 1009.4
20240623023726 81 210 0.0 0.0 0.00 0.00 0.00 76 1009.6
20240623023224 81 154 0.0 0.0 0.00 0.00 0.00 76 1009.4
20240623022723 81 213 0.0 0.0 0.00 0.00 0.00 76 1009.2
20240623022220 81 195 0.0 0.0 0.00 0.00 0.00 76 1009.3
20240623021719 81 222 0.0 0.0 0.00 0.00 0.00 76 1009.1
20240623021218 81 211 0.0 0.0 0.00 0.00 0.00 76 1009.0
20240623020717 82 221 0.0 0.0 0.00 0.00 0.00 76 1009.1
20240623020215 81 204 0.0 0.0 0.00 0.00 0.00 76 1009.3
20240623015715 82 192 0.0 0.0 0.00 0.00 0.00 75 1009.0
20240623015215 82 202 0.0 0.0 0.00 0.00 0.00 75 1009.2
20240623014715 82 212 0.0 0.0 0.00 0.00 0.00 75 1009.4
20240623014214 82 193 0.0 0.0 0.00 0.00 0.00 75 1009.2
20240623013712 82 218 0.0 0.0 0.00 0.00 0.00 74 1009.2
20240623013210 82 178 0.0 0.0 0.00 0.00 0.00 74 1009.5
20240623012710 83 192 0.0 0.0 0.00 0.00 0.00 73 1009.5
20240623012208 83 185 0.0 0.0 0.00 0.00 0.00 72 1009.4
20240623011707 84 215 0.0 0.0 0.00 0.00 0.00 70 1009.6
20240623011206 84 161 0.0 0.0 0.00 0.00 0.00 70 1009.4
20240623010705 85 194 0.0 0.0 0.00 0.00 0.00 69 1009.4
20240623010203 85 227 0.0 0.0 0.00 0.00 0.00 69 1009.7
20240623005701 85 191 0.0 0.0 0.00 0.00 0.00 68 1009.5
20240623005201 85 214 0.0 0.0 0.00 0.00 0.00 69 1009.5
20240623004701 86 216 0.0 0.0 0.00 0.00 0.00 68 1009.3
20240623004158 86 211 0.0 0.0 0.00 0.00 0.00 67 1009.5
20240623003657 86 193 0.0 0.0 0.00 0.00 0.00 68 1009.5
20240623003157 86 154 0.0 0.0 0.00 0.00 0.00 67 1009.4
20240623002655 87 225 0.0 0.0 0.00 0.00 0.00 66 1009.9
20240623002151 87 207 0.0 0.0 0.00 0.00 0.00 66 1009.8
20240623001649 87 220 0.0 0.0 0.00 0.00 0.00 64 1009.9
20240623001148 87 207 0.0 0.0 0.00 0.00 0.00 64 1010.0
20240623000646 87 196 0.0 0.0 0.00 0.00 0.00 64 1009.9
20240623000145 87 204 0.0 0.0 0.00 0.00 0.00 63 1009.9
20240622235643 88 206 0.0 0.0 0.00 0.00 0.00 62 1009.8
20240622235142 89 202 0.0 0.0 0.00 0.00 0.00 63 1010.0
20240622234640 89 218 0.0 0.0 0.00 0.00 0.00 60 1010.1
20240622234139 89 217 0.0 0.0 0.00 0.00 0.00 60 1009.9
20240622233638 89 195 0.0 0.0 0.00 0.00 0.00 60 1009.8
20240622233138 89 211 0.0 0.0 0.00 0.00 0.00 61 1009.9
20240622232635 89 196 0.0 0.0 0.00 0.00 0.00 61 1010.0
20240622232135 89 161 0.0 0.0 0.00 0.00 0.00 60 1010.1
20240622231636 89 191 0.0 0.0 0.00 0.00 0.00 63 1010.0
20240622231134 89 199 0.0 0.0 0.00 0.00 0.00 62 1010.2
20240622230632 89 194 0.0 0.0 0.00 0.00 0.00 61 1010.1
20240622230131 90 199 0.0 0.0 0.00 0.00 0.00 59 1010.0
20240622225630 90 204 0.0 0.0 0.00 0.00 0.00 60 1010.1
20240622225128 90 213 0.0 0.0 0.00 0.00 0.00 59 1009.9
20240622224627 90 204 0.0 0.0 0.00 0.00 0.00 59 1010.1
20240622224126 90 220 0.0 0.0 0.00 0.00 0.00 59 1010.1
20240622223624 90 222 0.0 0.0 0.00 0.00 0.00 58 1010.0
20240622223123 90 217 0.0 0.0 0.00 0.00 0.00 60 1010.2
20240622222622 90 222 0.0 0.0 0.00 0.00 0.00 60 1010.4
20240622222121 91 187 0.0 0.0 0.00 0.00 0.00 60 1010.6
20240622221621 90 154 0.0 0.0 0.00 0.00 0.00 59 1010.6
20240622221120 90 188 0.0 0.0 0.00 0.00 0.00 60 1010.1
20240622220620 90 200 0.0 0.0 0.00 0.00 0.00 59 1010.4
20240622220118 90 203 0.0 0.0 0.00 0.00 0.00 61 1010.4
20240622215617 90 205 0.0 0.0 0.00 0.00 0.00 61 1010.4
20240622215116 90 206 0.0 0.0 0.00 0.00 0.00 61 1010.7
20240622214614 89 228 0.0 0.0 0.00 0.00 0.00 61 1010.9
20240622214112 90 204 0.0 0.0 0.00 0.00 0.00 63 1011.0
20240622213609 90 190 0.0 0.0 0.00 0.00 0.00 62 1010.8
20240622213109 91 187 0.0 0.0 0.00 0.00 0.00 59 1010.9
20240622212608 91 185 0.0 0.0 0.00 0.00 0.00 61 1010.9
20240622212106 91 197 0.0 0.0 0.00 0.00 0.00 61 1011.0
20240622211606 91 236 0.0 0.0 0.00 0.00 0.00 60 1010.8
20240622211103 91 208 0.0 0.0 0.00 0.00 0.00 61 1011.1
20240622210603 90 203 0.0 0.0 0.00 0.00 0.00 62 1011.3
20240622210100 90 213 0.0 0.0 0.00 0.00 0.00 62 1011.4
20240622205557 90 206 0.0 0.0 0.00 0.00 0.00 64 1011.6
20240622205057 90 214 0.0 0.0 0.00 0.00 0.00 60 1011.3
20240622204555 90 226 0.0 0.0 0.00 0.00 0.00 60 1011.4
20240622204054 90 203 0.0 0.0 0.00 0.00 0.00 63 1011.5
20240622203552 89 207 0.0 0.0 0.00 0.00 0.00 62 1011.3
20240622203051 90 205 0.0 0.0 0.00 0.00 0.00 62 1011.6
20240622202548 90 234 0.0 0.0 0.00 0.00 0.00 62 1011.7
20240622202047 89 246 0.0 0.0 0.00 0.00 0.00 63 1011.7
20240622201546 89 214 0.0 0.0 0.00 0.00 0.00 63 1011.6
20240622201045 90 192 0.0 0.0 0.00 0.00 0.00 62 1011.5
20240622200543 90 217 0.0 0.0 0.00 0.00 0.00 62 1011.8
20240622200041 90 213 0.0 0.0 0.00 0.00 0.00 62 1011.9
20240622195541 90 242 0.0 0.0 0.00 0.00 0.00 61 1011.7
20240622195040 89 216 0.0 0.0 0.00 0.00 0.00 61 1011.8
20240622194538 89 224 0.0 0.0 0.00 0.00 0.00 62 1011.8
20240622194037 89 198 0.0 0.0 0.00 0.00 0.00 63 1012.1
20240622193534 90 210 0.0 0.0 0.00 0.00 0.00 61 1012.1
20240622193033 90 228 0.0 0.0 0.00 0.00 0.00 63 1012.0
20240622192531 90 236 0.0 0.0 0.00 0.00 0.00 60 1012.2
20240622192030 90 219 0.0 0.0 0.00 0.00 0.00 61 1012.2
20240622191529 89 165 0.0 0.0 0.00 0.00 0.00 64 1012.2
20240622191028 88 221 0.0 0.0 0.00 0.00 0.00 64 1012.4
20240622190527 88 216 0.0 0.0 0.00 0.00 0.00 66 1012.1
20240622190026 88 184 0.0 0.0 0.00 0.00 0.00 63 1012.2
20240622185520 89 208 0.0 0.0 0.00 0.00 0.00 61 1012.1
20240622185020 89 228 0.0 0.0 0.00 0.00 0.00 61 1012.4
20240622184518 89 234 0.0 0.0 0.00 0.00 0.00 60 1012.3
20240622184018 90 227 0.0 0.0 0.00 0.00 0.00 61 1012.4
20240622183517 89 232 0.0 0.0 0.00 0.00 0.00 61 1012.5
20240622183015 89 235 0.0 0.0 0.00 0.00 0.00 63 1012.5
20240622182515 89 228 0.0 0.0 0.00 0.00 0.00 62 1012.6
20240622182014 89 238 0.0 0.0 0.00 0.00 0.00 62 1012.6
20240622181512 88 204 0.0 0.0 0.00 0.00 0.00 64 1012.7
20240622181011 87 249 0.0 0.0 0.00 0.00 0.00 65 1012.7
20240622180510 87 208 0.0 0.0 0.00 0.00 0.00 64 1012.9
20240622180009 87 222 0.0 0.0 0.00 0.00 0.00 65 1012.9
20240622175505 87 209 0.0 0.0 0.00 0.00 0.00 64 1012.6
20240622175005 87 266 0.0 0.0 0.00 0.00 0.00 64 1013.1
20240622174502 87 209 0.0 0.0 0.00 0.00 0.00 64 1013.2
20240622174000 88 222 0.0 0.0 0.00 0.00 0.00 64 1013.3
20240622173458 88 260 0.0 0.0 0.00 0.00 0.00 64 1013.5
20240622172958 87 236 0.0 0.0 0.00 0.00 0.00 64 1013.3
20240622172456 87 240 0.0 0.0 0.00 0.00 0.00 64 1013.4
20240622171954 88 210 0.0 0.0 0.00 0.00 0.00 62 1013.4
20240622171453 87 231 0.0 0.0 0.00 0.00 0.00 67 1013.5
20240622170951 87 230 0.0 0.0 0.00 0.00 0.00 63 1013.6
20240622170449 87 220 0.0 0.0 0.00 0.00 0.00 64 1013.4
20240622165948 87 207 0.0 0.0 0.00 0.00 0.00 66 1013.7
20240622165445 87 246 0.0 0.0 0.00 0.00 0.00 66 1013.7
20240622164942 87 235 0.0 0.0 0.00 0.00 0.00 65 1014.0
20240622164441 87 238 0.0 0.0 0.00 0.00 0.00 66 1013.9
20240622163941 86 229 0.0 0.0 0.00 0.00 0.00 65 1013.7
20240622163440 87 215 0.0 0.0 0.00 0.00 0.00 65 1013.9
20240622162939 87 211 0.0 0.0 0.00 0.00 0.00 65 1013.9
20240622162438 86 216 0.0 0.0 0.00 0.00 0.00 67 1013.6
20240622161936 86 227 0.0 0.0 0.00 0.00 0.00 67 1013.9
20240622161434 86 234 0.0 0.0 0.00 0.00 0.00 66 1013.9
20240622160933 86 205 0.0 0.0 0.00 0.00 0.00 68 1014.0
20240622160432 86 193 0.0 0.0 0.00 0.00 0.00 68 1014.0
20240622155933 85 215 0.0 0.0 0.00 0.00 0.00 68 1013.7
20240622155432 85 135 0.0 0.0 0.00 0.00 0.00 68 1014.0
20240622154932 84 223 0.0 0.0 0.00 0.00 0.00 69 1013.5
20240622154431 84 217 0.0 0.0 0.00 0.00 0.00 70 1014.0
20240622153929 83 221 0.0 0.0 0.00 0.00 0.00 71 1014.0
20240622153428 83 215 0.0 0.0 0.00 0.00 0.00 70 1014.0
20240622152927 84 223 0.0 0.0 0.00 0.00 0.00 69 1014.1
20240622152426 83 177 0.0 0.0 0.00 0.00 0.00 73 1014.1
20240622151924 83 195 0.0 0.0 0.00 0.00 0.00 70 1014.3
20240622151423 83 209 0.0 0.0 0.00 0.00 0.00 70 1014.4
20240622150923 83 222 0.0 0.0 0.00 0.00 0.00 69 1014.4
20240622150422 82 211 0.0 0.0 0.00 0.00 0.00 72 1014.7
20240622145923 82 215 0.0 0.0 0.00 0.00 0.00 70 1014.5
20240622145421 82 215 0.0 0.0 0.00 0.00 0.00 72 1014.6
20240622144919 82 205 0.0 0.0 0.00 0.00 0.00 71 1014.7
20240622144418 82 215 0.0 0.0 0.00 0.00 0.00 69 1014.5
20240622143918 82 212 0.0 0.0 0.00 0.00 0.00 70 1014.6
20240622143417 82 236 0.0 0.0 0.00 0.00 0.00 71 1014.7
20240622142915 81 210 0.0 0.0 0.00 0.00 0.00 71 1014.8
20240622142414 81 213 0.0 0.0 0.00 0.00 0.00 71 1014.8
20240622141913 81 207 0.0 0.0 0.00 0.00 0.00 72 1014.8
20240622141412 81 192 0.0 0.0 0.00 0.00 0.00 73 1014.7
20240622140910 80 185 0.0 0.0 0.00 0.00 0.00 72 1014.7
20240622140409 80 208 0.0 0.0 0.00 0.00 0.00 74 1015.0
20240622135908 80 222 0.0 0.0 0.00 0.00 0.00 74 1014.9
20240622135406 80 194 0.0 0.0 0.00 0.00 0.00 74 1015.1
20240622134904 79 217 0.0 0.0 0.00 0.00 0.00 75 1015.0
20240622134403 79 231 0.0 0.0 0.00 0.00 0.00 76 1015.1
20240622133901 78 220 0.0 0.0 0.00 0.00 0.00 76 1015.2
20240622133358 77 186 0.0 0.0 0.00 0.00 0.00 78 1015.0
20240622132858 77 203 0.0 0.0 0.00 0.00 0.00 79 1015.2
20240622132357 77 206 0.0 0.0 0.00 0.00 0.00 79 1014.9
20240622131852 77 212 0.0 0.0 0.00 0.00 0.00 79 1015.2
20240622131351 78 183 0.0 0.0 0.00 0.00 0.00 78 1015.1
20240622130850 77 214 0.0 0.0 0.00 0.00 0.00 79 1015.4
20240622130350 77 173 0.0 0.0 0.00 0.00 0.00 79 1015.4
20240622125849 77 216 0.0 0.0 0.00 0.00 0.00 79 1015.4
20240622125347 76 170 0.0 0.0 0.00 0.00 0.00 80 1015.6
20240622124845 76 231 0.0 0.0 0.00 0.00 0.00 80 1015.5
20240622124344 76 203 0.0 0.0 0.00 0.00 0.00 81 1015.8
20240622123841 75 191 0.0 0.0 0.00 0.00 0.00 83 1015.7